Total_Precipitation_Accumulation
0.16 0.24 0.31 0.32 0.27 0.21 0.18 0.21 0.34 0.33 0.39 0.49 0.61 0.66 0.83 0.92 0.87 0.81 0.74 0.71 0.78 0.92 0.94 0.94 0.99 1.01 1.09 1.11 1.30 1.31 1.37 1.47 1.56 1.55 1.55 1.52 1.46 1.42 1.47 1.55 1.52 1.69 1.91 2.00
0.16 0.18 0.23 0.26 0.26 0.19 0.14 0.13 0.16 0.28 0.50 0.55 0.58 0.65 0.79 0.80 0.78 0.78 0.85 0.90 0.93 0.98 1.06 0.96 0.91 0.85 0.79 0.87 1.04 1.18 1.31 1.27 1.33 1.42 1.34 1.31 1.32 1.29 1.33 1.43 1.55 1.72 1.76 1.78
0.25 0.21 0.27 0.32 0.27 0.20 0.14 0.13 0.15 0.32 0.60 0.61 0.63 0.70 0.83 0.89 0.89 0.79 0.80 0.86 0.96 1.02 1.02 0.87 0.82 0.80 0.82 0.84 0.93 1.01 1.12 1.28 1.38 1.43 1.38 1.31 1.35 1.45 1.46 1.59 1.65 1.63 1.57 1.58
0.37 0.44 0.58 0.39 0.26 0.22 0.23 0.21 0.22 0.28 0.39 0.48 0.63 0.66 0.68 0.75 0.87 0.89 0.91 0.99 1.02 0.97 0.94 0.90 0.87 0.88 0.89 0.90 0.97 1.08 1.11 1.23 1.34 1.36 1.33 1.34 1.33 1.40 1.52 1.69 1.74 1.66 1.49 1.49
0.51 0.60 0.52 0.43 0.37 0.35 0.39 0.39 0.36 0.45 0.44 0.50 0.57 0.63 0.79 0.69 0.73 0.75 0.92 0.98 1.02 1.03 1.05 1.06 1.01 1.07 1.09 1.05 1.09 1.21 1.31 1.37 1.35 1.40 1.44 1.47 1.50 1.56 1.63 1.67 1.68 1.73 1.62 1.54
0.67 0.81 0.81 0.67 0.57 0.50 0.52 0.86 0.65 0.61 0.62 0.71 0.76 0.88 1.07 0.87 0.77 0.84 0.93 0.91 0.96 0.96 1.03 1.14 1.15 1.27 1.31 1.31 1.32 1.38 1.48 1.58 1.62 1.71 1.77 1.74 1.85 1.98 1.99 1.97 1.92 1.96 1.84 1.75
0.87 0.99 0.99 0.78 0.66 0.62 1.03 1.24 0.81 0.73 0.78 0.77 0.82 0.94 0.97 0.97 0.97 0.96 0.80 0.77 0.83 0.94 0.94 1.04 1.24 1.44 1.58 1.55 1.47 1.55 1.67 1.82 1.98 2.08 2.25 2.40 2.49 2.38 2.29 2.28 2.28 2.12 1.98 1.94
1.22 1.39 1.31 0.84 0.78 1.12 1.35 1.02 1.03 0.93 0.86 0.86 0.81 0.91 0.98 0.97 0.93 0.84 0.83 0.81 0.87 0.99 0.99 1.04 1.22 1.41 1.58 1.59 1.61 1.78 1.94 2.11 2.24 2.44 2.54 2.63 2.97 2.99 2.97 2.91 2.64 2.39 2.32 2.18
1.35 1.45 1.18 1.02 1.18 1.27 1.24 1.21 1.25 1.28 1.10 1.00 0.94 0.96 1.00 0.93 0.85 0.79 0.80 0.81 0.86 1.02 1.13 1.17 1.26 1.49 1.75 1.79 1.85 1.97 2.10 2.31 2.47 2.54 2.67 2.80 2.94 2.94 2.95 2.88 2.63 2.46 2.43 2.34
1.48 1.57 1.35 1.27 1.27 1.31 1.29 1.24 1.26 1.36 1.48 1.45 1.19 1.03 1.05 1.01 0.92 0.91 0.96 0.92 0.94 1.05 1.21 1.38 1.49 1.66 1.92 1.98 2.10 2.17 2.22 2.35 2.44 2.53 2.64 2.81 2.94 2.86 2.80 2.73 2.65 2.59 2.56 2.52
1.88 1.85 1.68 1.53 1.56 1.67 1.57 1.44 1.48 1.50 1.54 1.60 1.29 1.06 1.00 1.07 1.03 1.03 1.12 1.15 1.13 1.18 1.30 1.51 1.68 1.84 1.92 1.97 2.16 2.34 2.34 2.39 2.49 2.50 2.52 2.62 2.69 2.77 2.71 2.66 2.68 2.69 2.68 2.71
2.12 1.95 2.01 1.84 1.55 1.64 1.77 1.63 1.64 1.59 1.51 1.37 1.26 1.19 1.18 1.17 1.15 1.15 1.27 1.31 1.30 1.28 1.35 1.53 1.72 1.91 2.03 2.15 2.29 2.41 2.44 2.38 2.45 2.50 2.50 2.50 2.49 2.38 2.38 2.34 2.30 2.23 2.30 2.35
1.75 1.65 1.78 1.76 1.66 1.68 1.87 1.76 1.53 1.48 1.46 1.45 1.37 1.24 1.23 1.21 1.16 1.20 1.26 1.27 1.31 1.36 1.40 1.48 1.62 1.84 2.06 2.30 2.50 2.61 2.63 2.60 2.59 2.70 2.76 2.73 2.70 2.61 2.50 2.40 2.23 2.01 1.89 1.87
1.70 1.72 1.81 1.86 1.92 1.83 1.86 1.76 1.52 1.37 1.34 1.40 1.43 1.31 1.26 1.26 1.24 1.31 1.40 1.32 1.25 1.32 1.45 1.50 1.56 1.75 1.96 2.16 2.40 2.56 2.59 2.69 2.69 2.68 2.75 2.77 2.75 2.72 2.62 2.47 2.33 2.11 1.86 1.72
1.81 1.89 1.99 1.99 2.01 1.96 1.91 1.77 1.76 1.54 1.37 1.35 1.42 1.43 1.39 1.38 1.38 1.34 1.34 1.23 1.17 1.21 1.33 1.51 1.64 1.72 1.87 1.95 2.05 2.20 2.33 2.44 2.50 2.48 2.46 2.52 2.58 2.55 2.48 2.40 2.26 2.10 1.84 1.74
1.81 1.91 1.93 1.94 1.99 1.98 1.93 1.86 1.78 1.60 1.43 1.42 1.47 1.39 1.41 1.44 1.39 1.30 1.23 1.25 1.31 1.34 1.39 1.54 1.61 1.71 1.91 2.05 2.17 2.25 2.31 2.39 2.38 2.31 2.19 2.13 2.14 2.16 2.12 2.14 2.12 2.03 1.90 1.74
1.87 1.94 1.94 1.97 1.90 1.89 1.95 1.96 1.82 1.62 1.47 1.44 1.48 1.43 1.33 1.26 1.24 1.22 1.19 1.19 1.22 1.31 1.43 1.57 1.61 1.59 1.79 2.09 2.27 2.27 2.22 2.16 2.16 2.11 2.00 1.90 1.94 2.02 2.08 2.11 2.04 1.93 1.81 1.71
1.80 1.79 1.77 1.86 1.88 1.84 1.83 1.81 1.86 1.74 1.56 1.48 1.41 1.40 1.39 1.33 1.20 1.13 1.12 1.15 1.18 1.18 1.22 1.35 1.44 1.50 1.60 1.80 2.01 2.09 2.09 1.99 1.89 1.83 1.82 1.78 1.75 1.80 1.86 1.84 1.72 1.63 1.54 1.43
1.59 1.55 1.54 1.60 1.71 1.79 1.82 1.76 1.80 1.77 1.62 1.57 1.55 1.53 1.48 1.45 1.30 1.19 1.12 1.15 1.28 1.34 1.25 1.28 1.46 1.43 1.51 1.66 1.83 1.85 1.91 1.94 1.84 1.68 1.66 1.75 1.65 1.61 1.56 1.49 1.43 1.36 1.26 1.20
1.53 1.44 1.47 1.62 1.74 1.88 1.95 1.81 1.67 1.70 1.73 1.67 1.63 1.61 1.53 1.49 1.42 1.37 1.33 1.29 1.42 1.51 1.47 1.44 1.33 1.32 1.45 1.70 1.85 1.77 1.78 1.82 1.79 1.68 1.62 1.59 1.54 1.49 1.35 1.30 1.29 1.27 1.23 1.21
1.64 1.56 1.60 1.66 1.69 1.81 1.90 1.80 1.61 1.62 1.63 1.62 1.60 1.56 1.51 1.51 1.46 1.50 1.57 1.52 1.43 1.43 1.38 1.40 1.31 1.30 1.34 1.56 1.69 1.67 1.64 1.62 1.65 1.61 1.59 1.58 1.54 1.46 1.34 1.31 1.29 1.24 1.18 1.14
1.80 1.71 1.63 1.58 1.51 1.54 1.64 1.71 1.54 1.44 1.43 1.46 1.48 1.43 1.45 1.47 1.51 1.52 1.48 1.52 1.51 1.51 1.34 1.30 1.30 1.32 1.32 1.36 1.39 1.54 1.60 1.52 1.47 1.42 1.42 1.39 1.41 1.42 1.34 1.26 1.18 1.04 0.99 0.98
1.76 1.67 1.52 1.45 1.40 1.39 1.41 1.41 1.36 1.36 1.39 1.44 1.51 1.57 1.60 1.51 1.51 1.67 1.65 1.39 1.35 1.34 1.26 1.25 1.24 1.18 1.13 1.16 1.29 1.39 1.48 1.46 1.43 1.32 1.28 1.25 1.19 1.18 1.16 1.12 1.03 0.96 0.96 0.96
1.48 1.54 1.46 1.32 1.31 1.33 1.39 1.38 1.35 1.33 1.34 1.42 1.48 1.60 1.72 1.75 1.66 1.60 1.59 1.48 1.29 1.15 1.04 1.04 0.99 0.95 0.96 0.97 1.13 1.25 1.36 1.36 1.32 1.22 1.13 1.09 1.01 0.98 1.02 1.02 0.97 0.94 0.92 0.89
1.28 1.25 1.29 1.30 1.28 1.39 1.43 1.38 1.34 1.28 1.32 1.40 1.41 1.52 1.70 1.81 1.82 1.67 1.44 1.26 1.16 1.05 0.95 0.93 0.94 0.93 0.89 0.92 1.07 1.22 1.31 1.30 1.28 1.20 1.08 1.01 0.93 0.90 0.95 0.97 0.93 0.88 0.83 0.79
1.29 1.26 1.34 1.39 1.36 1.42 1.43 1.41 1.46 1.45 1.50 1.59 1.59 1.59 1.62 1.53 1.49 1.43 1.32 1.20 1.10 1.07 0.97 0.95 0.95 0.93 0.92 1.03 1.12 1.21 1.27 1.25 1.24 1.17 1.03 0.95 0.86 0.87 0.93 0.93 0.88 0.84 0.76 0.69
1.34 1.34 1.41 1.48 1.52 1.49 1.46 1.47 1.52 1.58 1.68 1.84 1.99 1.92 1.79 1.66 1.56 1.39 1.24 1.18 1.10 1.05 1.06 1.04 0.96 0.89 0.92 1.06 1.16 1.20 1.20 1.16 1.06 0.99 0.97 0.92 0.87 0.87 0.90 0.86 0.79 0.73 0.65 0.61